This is the latest recevied weather packets stored in our database for station/object WD9EKA. If no packets are shown the sender has not sent any weather packets the latest 10 day(s).
| Time | Temp. | Humidity | Pressure | Rain* | Wind** | Luminosity | Snow |
|---|---|---|---|---|---|---|---|
| 1787574754 | 15.56° C | 99% | 1013.3 hPa | 0 mm | - | - | - |
| 1787574393 | 14.44° C | 99% | 1013.2 hPa | 0 mm | - | - | - |
| 1787574033 | 12.78° C | 99% | 1013.2 hPa | 0 mm | - | - | - |
| 1787573673 | 12.22° C | 99% | 1013.3 hPa | 0 mm | - | - | - |
| 1787573313 | 12.22° C | 99% | 1013.3 hPa | 0 mm | - | - | - |
| 1787572995 | 12.22° C | 99% | 1013.1 hPa | 0 mm | - | - | - |
| 1787572353 | 11.67° C | 99% | 1013.2 hPa | 0 mm | - | - | - |
| 1787571994 | 11.67° C | 99% | 1013 hPa | 0 mm | - | - | - |
| 1787571633 | 11.67° C | 99% | 1012.9 hPa | 0 mm | - | - | - |
| 1787571274 | 11.67° C | 99% | 1013.1 hPa | 0 mm | - | - | - |
| 1787570914 | 11.67° C | 99% | 1012.9 hPa | 0 mm | - | - | - |
| 1787570554 | 11.11° C | 99% | 1013 hPa | 0 mm | - | - | - |
| 1787570193 | 11.11° C | 99% | 1013 hPa | 0 mm | - | - | - |
| 1787569833 | 11.67° C | 99% | 1012.9 hPa | 0 mm | - | - | - |
| 1787569474 | 11.11° C | 99% | 1012.7 hPa | 0 mm | - | - | - |
| 1787569113 | 11.11° C | 99% | 1012.8 hPa | 0 mm | - | - | - |
| 1787568753 | 11.67° C | 99% | 1012.9 hPa | 0 mm | - | - | - |
| 1787568394 | 11.11° C | 99% | 1012.7 hPa | 0 mm | - | - | - |
| 1787568033 | 11.11° C | 99% | 1012.7 hPa | 0 mm | - | - | - |
| 1787567673 | 11.11° C | 99% | 1012.8 hPa | 0 mm | - | - | - |
| 1787567313 | 11.11° C | 99% | 1012.7 hPa | 0 mm | - | - | - |
| 1787566954 | 11.11° C | 99% | 1012.8 hPa | 0 mm | - | - | - |
| 1787566233 | 11.67° C | 99% | 1012.8 hPa | 0 mm | - | - | - |
| 1787565873 | 11.11° C | 99% | 1012.9 hPa | 0 mm | - | - | - |
| 1787565513 | 11.67° C | 99% | 1012.7 hPa | 0 mm | - | - | - |
* Rain latest hour (hover to see other rain measurements)
** Current wind speed in m/s (hover to see current wind gust speed)